Temp
21 21 21 20 19 18 21 25 24 24 22 21 22 19 17 17 17 18 16 17 16 16 15 15 15 15 15 15 14 14 14 14 14 14 15 15 15 16 16 16 16 16 17 16 17 16 16 16 17
20 21 20 17 18 19 21 23 22 22 21 19 19 18 17 16 16 15 16 16 16 16 15 16 15 15 14 14 14 14 14 13 14 14 14 14 15 16 16 16 16 16 16 16 16 16 16 16 17
20 21 17 18 18 20 22 22 20 21 21 23 19 17 17 15 16 17 17 16 16 15 15 16 15 14 14 14 14 13 13 13 13 13 14 14 15 16 17 16 16 16 15 15 15 16 16 17 17
21 19 17 19 21 23 22 20 21 22 23 19 17 16 16 17 18 18 17 16 16 15 15 15 14 14 14 13 13 13 13 13 13 13 14 14 15 16 16 17 16 17 16 15 15 15 16 16 17
20 16 18 20 22 25 22 21 21 22 22 21 19 16 15 17 18 17 17 16 16 15 15 15 14 14 13 13 13 13 13 13 13 14 14 14 14 15 16 16 16 16 16 15 15 15 16 16 17
17 17 18 19 21 25 23 22 22 21 20 18 16 16 15 17 18 17 16 16 16 15 15 14 13 13 13 12 12 12 12 12 12 13 14 14 14 14 14 16 16 15 16 15 15 14 15 16 16
19 18 20 22 23 25 24 24 22 20 20 20 17 15 15 16 17 17 16 16 15 15 14 13 13 12 12 11 11 11 10 11 11 12 13 13 14 14 15 14 14 14 15 15 15 14 14 15 16
18 18 21 21 22 24 23 23 22 21 21 20 17 14 14 16 17 17 16 15 15 15 15 14 13 12 12 11 11 11 10 11 11 12 12 12 13 14 14 14 15 15 15 14 14 14 14 14 15
20 18 18 22 24 23 24 23 21 21 19 17 17 15 17 18 16 15 15 14 14 15 15 14 12 12 12 11 11 11 11 11 11 11 11 11 11 11 12 13 13 14 13 13 13 13 14 14 14
18 17 20 22 22 22 23 23 21 20 19 17 15 16 17 18 14 13 13 13 13 13 14 14 13 12 12 11 11 11 11 11 11 10 11 11 11 10 9 11 12 12 12 12 14 13 13 14 14
19 18 21 21 21 21 22 22 22 19 19 17 15 15 16 16 13 13 13 13 15 14 14 14 13 12 12 11 11 11 11 11 10 10 10 10 10 10 9 9 11 11 12 13 13 12 13 13 13
20 20 21 21 20 21 22 22 22 21 21 18 16 16 16 15 13 13 13 15 15 14 14 13 13 12 12 11 11 11 10 10 10 10 10 10 10 10 10 10 11 12 12 12 12 12 12 12 11
20 20 20 19 19 20 21 21 21 19 19 17 16 16 15 13 13 14 15 15 14 14 13 13 12 12 12 11 11 11 10 10 10 10 10 10 10 10 10 10 10 10 11 11 11 12 11 11 11
19 19 19 18 19 20 20 20 21 18 16 16 15 14 14 13 13 14 14 14 14 14 13 13 12 12 11 11 11 11 10 10 10 10 10 10 10 10 9 10 10 10 10 10 10 11 11 11 10
19 19 19 18 18 19 19 19 18 16 16 15 15 14 14 13 13 13 13 14 15 14 13 12 12 12 11 11 11 10 10 10 10 10 10 10 10 10 9 9 9 9 9 10 10 10 10 10 10
19 19 18 18 17 18 18 17 18 16 15 14 14 14 13 13 13 14 14 15 14 13 13 11 11 11 11 10 10 10 10 10 9 9 9 9 9 9 9 9 9 9 9 9 9 10 9 9 9
17 16 17 18 17 16 17 18 17 15 15 14 14 13 13 12 12 14 15 15 14 13 12 11 11 11 10 10 10 10 10 9 9 9 9 9 9 9 9 9 9 9 9 9 9 9 10 8 8
16 17 18 17 16 17 16 16 17 15 14 13 12 12 13 12 12 14 14 15 14 13 12 11 11 10 10 10 10 9 9 9 9 9 9 9 9 9 9 9 9 9 9 9 9 9 8 8 7
18 18 19 17 17 17 15 16 16 15 15 12 11 12 12 12 13 14 14 14 14 13 12 11 11 10 10 10 9 9 9 9 9 9 9 9 9 9 9 9 9 9 9 9 8 8 8 7 7
16 17 18 17 17 17 16 15 16 15 14 14 14 13 13 12 12 13 14 14 13 12 12 11 10 10 10 10 10 9 9 9 9 8 9 9 9 9 9 9 9 9 9 8 8 9 7 8 8
16 15 16 17 16 16 16 15 17 16 16 14 14 15 14 12 12 13 12 14 13 11 11 11 10 10 10 10 9 9 9 8 8 8 8 8 8 9 9 9 9 9 9 9 9 9 9 8 8
15 16 17 15 13 13 15 12 15 14 15 14 12 13 13 13 13 13 12 13 12 11 11 11 10 10 10 10 10 9 9 8 8 8 8 8 8 8 9 9 9 9 9 9 9 9 9 9 9
16 17 16 14 11 12 14 9 12 14 14 15 12 12 12 13 12 12 13 13 12 11 11 11 10 10 9 10 10 10 9 9 9 8 8 8 8 8 8 9 9 9 9 9 9 9 9 9 9
14 14 13 11 10 7 11 12 12 14 16 16 14 12 11 11 12 12 13 13 12 11 11 10 10 10 9 10 10 10 10 9 8 8 8 8 8 8 8 8 8 8 9 9 9 9 9 9 9
13 12 9 10 8 10 11 11 17 16 14 14 14 11 10 10 10 10 12 12 12 11 10 10 10 9 9 9 9 10 10 10 9 8 8 8 7 8 8 8 8 8 8 8 8 8 9 9 9
11 12 10 11 11 12 11 11 13 11 9 10 10 9 9 9 9 9 11 12 12 11 10 9 9 9 9 9 9 9 10 10 9 9 8 8 8 8 8 8 8 8 8 8 8 8 8 8 8
12 11 13 9 11 7 11 11 12 10 9 9 8 9 8 8 8 8 9 11 11 10 10 9 9 9 9 9 9 9 9 9 9 9 8 8 8 8 8 8 8 8 7 7 7 8 8 8 8
11 11 12 8 10 11 12 12 13 8 9 8 8 7 7 7 8 7 8 10 10 9 9 9 9 9 9 9 9 9 9 9 9 9 8 8 8 8 8 7 7 7 7 7 7 7 7 7 7
9 7 9 10 10 11 9 11 10 11 10 8 7 7 7 6 6 7 8 9 9 9 9 9 9 9 9 9 9 9 9 9 8 8 8 8 8 8 7 7 7 7 7 7 7 7 7 7 7
8 9 9 11 9 6 7 10 8 7 7 7 7 6 5 5 6 6 6 7 7 8 8 8 8 8 9 8 8 8 8 8 8 8 7 7 7 7 7 7 7 6 6 6 6 6 6 6 6
Height
790 791 791 792 816 820 819 797 785 792 798 795 789 799 819 824 830 837 833 834 838 843 847 847 848 849 849 851 851 851 852 852 851 851 852 852 851 852 853 853 853 853 854 855 855 854 854 853 852
790 790 792 799 824 832 820 793 799 793 795 797 799 808 816 834 827 831 835 837 839 843 847 848 849 850 851 852 853 853 853 853 853 853 854 854 854 855 855 855 855 856 857 858 857 857 856 855 855
791 791 799 809 823 822 812 801 801 796 793 793 805 811 819 832 829 830 835 838 841 844 847 849 850 851 852 854 854 855 855 855 855 855 856 856 856 857 857 858 858 858 859 861 860 860 859 858 858
791 793 799 815 815 800 798 801 794 794 792 797 806 823 823 826 827 831 835 839 843 846 848 850 852 853 854 855 855 856 857 857 857 857 858 858 859 860 860 861 860 862 862 862 863 863 861 860 861
792 799 814 814 807 791 790 791 790 793 796 801 801 825 829 827 827 832 836 841 845 848 849 851 853 854 855 856 857 857 857 858 859 859 860 861 861 862 862 863 863 864 863 865 865 865 864 863 863
800 802 820 822 805 787 785 782 788 794 799 805 812 821 830 829 828 832 837 841 845 849 849 852 854 855 857 857 858 858 858 859 860 860 862 863 863 864 863 865 865 866 867 867 867 868 867 867 867
799 809 814 805 801 791 785 775 790 797 799 803 805 826 831 830 830 832 836 841 845 850 850 852 854 856 857 858 858 859 859 860 861 862 863 864 864 864 866 867 867 868 869 870 871 870 870 871 870
797 804 804 802 802 797 782 780 786 792 800 797 802 824 832 826 831 831 837 841 845 849 852 853 855 856 857 858 858 858 859 861 862 864 865 866 866 866 868 869 870 871 873 873 874 872 873 874 874
790 812 817 799 792 790 781 785 788 791 796 801 804 808 808 821 828 831 837 842 844 848 852 854 855 857 858 859 859 859 860 862 864 864 866 867 868 869 871 872 873 874 875 876 876 875 875 876 877
801 814 803 788 789 789 782 784 790 796 802 808 810 807 811 820 825 829 834 840 844 846 851 854 856 857 858 859 860 861 861 862 864 865 867 868 869 871 872 874 875 876 877 878 879 879 879 879 880
795 806 788 789 787 788 786 786 786 797 804 802 808 811 814 819 825 828 833 837 843 847 851 855 857 857 858 860 861 862 863 864 865 867 868 870 871 872 873 875 876 877 878 881 883 883 882 883 884
794 787 785 787 788 788 788 784 789 791 792 792 799 804 810 817 823 826 830 835 842 847 851 854 856 857 858 860 862 863 864 864 866 868 869 870 871 873 875 876 878 880 881 884 886 885 886 887 888
790 787 786 786 788 788 786 788 790 793 791 793 802 808 812 818 821 826 830 835 841 846 850 854 855 857 859 860 862 863 865 865 866 867 869 871 872 874 876 878 880 881 883 886 887 888 889 890 891
782 786 788 787 789 787 790 791 788 794 795 799 802 809 812 816 820 824 829 835 839 843 848 852 853 856 858 860 861 863 865 866 866 867 869 871 873 875 877 879 880 882 884 887 889 890 892 893 895
782 791 790 790 789 790 790 798 795 791 795 800 805 808 812 816 820 823 828 833 837 842 847 852 852 855 858 859 861 863 865 866 867 868 869 871 873 875 878 880 882 884 886 888 890 892 894 895 897
788 790 802 786 790 791 793 803 788 790 795 801 804 807 812 816 818 823 827 831 836 841 845 851 852 854 857 860 860 862 865 867 868 869 870 872 874 876 878 880 883 885 886 888 891 893 895 897 899
793 804 799 791 790 793 795 795 787 789 794 801 803 806 810 816 819 821 825 828 835 839 844 848 852 853 856 859 861 862 865 867 868 870 871 873 874 876 879 881 883 886 887 889 891 894 895 898 902
798 798 793 794 791 791 797 795 790 793 794 798 803 805 807 812 814 818 822 827 832 838 842 847 850 852 855 857 860 862 865 867 869 870 872 873 875 876 879 882 884 886 888 890 892 894 898 899 902
782 788 786 788 782 787 793 790 791 792 794 799 802 801 804 808 811 815 819 823 828 835 840 846 849 851 853 855 857 861 864 867 869 870 872 874 875 877 879 881 884 887 889 891 893 895 897 902 904
787 788 787 790 784 786 789 790 786 788 787 786 790 795 797 804 808 811 815 818 824 831 837 843 847 849 852 854 856 859 863 867 870 870 872 874 876 878 880 882 884 887 889 892 894 895 898 902 904
785 791 790 790 791 789 789 792 778 779 779 782 783 783 789 794 801 806 811 813 820 826 832 838 843 846 850 853 855 859 863 866 868 871 872 875 877 878 881 883 885 887 890 892 895 897 898 900 904
788 776 778 791 802 812 791 815 781 779 779 782 783 782 784 788 794 799 805 809 813 821 828 834 840 845 848 850 852 854 857 861 865 868 871 874 877 878 881 883 885 888 890 892 895 898 900 901 902
778 771 779 790 806 807 799 833 790 777 781 776 778 777 779 781 785 791 798 803 809 817 823 830 836 842 846 847 851 853 857 860 863 867 871 873 876 879 880 883 885 887 890 892 895 897 899 901 903
775 783 792 802 814 844 807 804 792 775 761 760 770 775 776 780 784 788 793 799 805 813 820 826 832 839 843 846 848 852 855 858 861 865 869 871 874 877 879 882 884 886 888 891 894 896 898 900 902
777 792 832 832 846 815 799 802 754 756 757 756 757 767 773 777 782 786 789 794 800 807 815 822 829 835 841 844 846 850 854 856 859 862 866 869 872 875 877 880 882 885 887 890 892 894 896 899 900
784 781 807 809 810 794 797 797 767 765 767 763 761 768 773 776 780 783 786 790 797 804 810 818 825 831 838 842 845 849 853 855 858 861 864 867 870 873 876 878 881 884 886 889 891 893 895 897 899
777 784 773 806 797 825 790 777 763 770 768 770 770 771 775 777 779 781 784 787 794 801 807 814 822 827 834 839 843 847 851 853 856 859 863 866 869 872 874 877 880 883 885 887 889 891 893 895 897
772 773 785 808 806 795 778 771 755 773 768 773 773 775 777 778 780 781 783 788 794 799 805 812 818 824 830 836 840 844 849 853 854 858 861 865 868 870 873 876 878 881 883 885 887 889 891 892 894
782 793 782 778 783 786 798 768 751 746 751 762 771 774 777 779 781 782 785 789 794 798 805 811 817 822 828 833 838 842 846 851 853 856 861 864 866 869 872 874 877 879 881 883 885 887 889 890 892
776 771 772 768 787 800 801 768 757 758 758 762 769 774 779 781 783 784 787 790 794 799 805 810 815 821 826 832 836 841 845 849 852 855 859 863 865 868 871 873 875 877 879 881 883 885 886 888 889
Wind_Speed
6 6 3 2 4 4 3 4 3 5 5 5 4 14 11 5 3 3 16 23 24 19 16 13 16 18 17 16 15 15 14 13 14 15 15 16 17 17 16 16 18 23 24 23 20 22 21 21 22
6 2 1 2 4 3 4 2 5 3 7 9 11 5 7 4 3 9 16 26 24 20 17 14 13 15 16 15 13 15 13 14 14 15 15 15 17 18 16 19 22 23 23 22 22 21 21 21 23
2 0 3 3 3 4 2 3 8 5 6 3 5 8 5 5 2 9 27 25 21 21 17 15 15 16 16 15 13 13 13 14 14 15 15 16 17 17 15 19 21 23 23 22 23 21 22 22 22
3 4 4 3 4 5 7 6 6 5 4 8 7 8 5 2 11 18 29 29 21 19 17 15 15 17 16 15 14 14 14 14 14 16 15 16 18 15 17 17 17 18 21 22 23 23 23 23 23
2 2 2 1 4 2 5 7 7 5 5 4 4 4 4 4 26 32 28 25 22 18 17 17 16 16 14 15 14 14 15 15 15 15 16 17 15 17 17 17 16 18 19 22 22 23 20 23 25
3 3 3 2 5 3 3 9 8 4 5 5 7 6 2 22 31 28 29 26 21 17 19 20 18 16 14 14 13 13 13 14 15 17 16 16 16 18 18 18 17 18 14 19 20 20 22 24 28
3 3 3 3 3 3 5 6 7 8 8 4 11 5 4 9 26 29 26 26 22 17 22 21 17 16 15 14 13 12 11 13 14 16 17 16 17 17 19 18 19 20 18 17 18 19 22 25 30
3 3 2 4 2 2 3 4 6 5 2 5 7 7 6 16 29 29 31 29 24 20 17 15 14 12 10 10 7 8 12 15 18 20 16 15 15 15 15 15 15 15 17 18 18 17 23 29 33
2 3 2 3 2 3 1 4 3 1 7 5 4 7 17 35 29 34 33 28 25 20 16 14 15 11 9 12 15 17 17 19 21 15 14 15 15 14 14 16 16 18 18 19 17 18 25 32 35
3 3 6 1 1 0 4 4 6 5 4 5 6 13 36 35 31 29 26 22 26 24 19 15 12 8 7 12 13 14 17 20 17 14 12 11 12 13 16 16 16 17 20 22 19 22 30 34 35
5 5 2 1 3 3 2 4 2 9 3 7 14 19 22 25 24 25 26 26 22 22 19 15 12 10 8 10 12 12 13 15 15 13 15 15 16 16 20 21 22 19 19 20 18 26 32 34 35
3 6 4 3 2 1 2 1 4 5 4 7 20 24 22 16 20 23 24 25 24 21 17 15 14 13 11 11 11 12 11 12 14 16 12 13 14 14 19 21 19 20 19 18 18 25 28 31 32
4 3 3 5 3 2 1 2 4 5 4 16 19 20 17 10 18 25 27 22 22 20 19 18 18 15 12 13 13 13 12 12 15 14 12 12 13 15 17 18 18 18 17 17 20 22 23 24 26
6 3 4 4 4 1 4 2 3 4 9 16 19 17 15 14 20 22 25 25 24 22 22 21 19 15 15 14 13 13 12 13 16 14 13 13 15 17 19 19 19 19 18 18 20 21 22 23 22
5 4 1 5 5 3 5 3 7 8 13 17 15 14 12 16 23 21 25 27 23 23 22 19 18 16 16 16 14 13 13 12 14 15 14 15 17 18 19 20 19 19 18 19 21 22 23 23 22
4 2 2 1 8 3 6 7 7 10 14 13 13 13 12 15 21 24 27 26 23 23 22 20 18 19 18 16 14 15 13 13 14 15 16 16 17 17 17 18 19 19 19 20 22 23 24 24 23
3 4 5 1 8 4 5 5 3 8 12 11 11 12 12 13 17 24 28 28 24 25 23 23 21 21 19 17 16 16 14 14 14 15 17 17 17 16 18 21 22 22 22 22 23 23 25 27 27
5 3 4 6 8 4 5 5 3 7 9 11 10 10 12 15 15 24 29 31 27 26 25 25 22 22 21 20 19 17 15 15 13 15 18 17 16 17 20 21 22 21 23 23 24 27 26 30 30
4 4 3 1 4 5 9 4 12 9 6 9 9 13 13 14 17 22 30 29 29 28 27 27 26 25 24 23 23 20 19 17 14 14 17 17 15 17 20 22 22 21 22 24 26 28 30 30 30
8 4 3 2 0 3 4 11 8 9 9 11 15 15 16 12 13 19 21 29 31 30 30 28 28 27 24 22 22 21 20 15 14 15 16 17 16 17 19 20 22 22 24 24 25 27 31 26 8
6 8 5 4 2 2 0 6 5 6 4 7 10 17 16 19 18 16 18 29 32 31 34 31 30 27 24 22 20 21 17 18 16 16 16 17 17 17 18 18 20 22 22 24 24 24 27 12 8
7 7 7 7 4 4 3 5 5 7 10 8 9 12 16 16 17 17 21 27 32 31 35 32 31 27 25 24 26 26 25 21 19 19 18 17 17 16 17 17 17 20 20 22 21 23 12 11 14
7 1 7 6 4 3 1 2 7 6 6 12 11 10 11 17 19 19 23 28 31 32 33 35 32 28 27 27 24 22 20 16 18 18 19 17 17 16 17 17 17 18 19 20 20 20 11 9 12
8 7 8 5 3 2 8 7 5 7 12 14 7 9 10 9 14 16 26 27 30 32 31 36 35 31 28 27 24 21 20 19 22 21 19 19 17 17 18 17 17 17 18 19 19 18 14 10 10
5 7 2 2 2 6 4 5 15 4 5 6 18 12 9 8 8 10 15 26 29 32 31 35 37 34 30 26 24 21 22 20 21 22 20 20 19 18 18 19 18 18 17 17 17 17 17 15 12
6 7 6 8 5 4 1 7 6 0 4 3 8 9 7 6 6 7 15 25 28 31 33 32 34 33 31 27 24 22 22 19 19 18 18 17 16 15 15 16 16 17 17 17 16 16 16 15 15
5 5 4 5 2 3 4 6 5 3 2 5 7 8 7 7 5 8 13 22 28 29 31 32 31 33 33 30 26 23 21 18 18 16 16 15 13 13 13 13 15 15 15 16 16 16 16 15 15
3 3 3 2 3 4 5 5 6 6 11 8 8 8 7 6 6 7 11 21 24 28 27 28 31 34 31 30 28 26 22 19 17 17 17 16 14 13 12 12 13 14 14 13 14 14 14 15 14
2 1 2 3 5 6 2 6 5 6 12 15 9 9 8 8 7 6 9 17 21 24 26 27 29 29 29 28 27 25 23 20 19 17 16 15 15 13 12 12 12 13 13 13 13 13 13 14 13
2 6 6 4 6 3 4 7 2 2 6 11 11 9 7 7 7 8 13 17 19 19 21 23 26 28 28 27 25 23 21 19 17 16 14 14 13 12 11 11 11 11 11 11 11 12 12 13 13
Wind_Direction
121 89 11 27 59 68 258 285 134 102 62 343 47 89 107 67 50 147 128 140 138 143 136 118 104 102 98 93 90 87 82 82 80 79 77 77 84 91 84 82 84 83 76 74 72 66 64 67 66
123 58 320 76 86 57 278 14 75 65 138 119 85 107 59 68 60 103 116 138 141 144 141 129 115 107 100 94 92 89 86 84 83 84 80 82 90 93 76 88 85 86 79 74 68 69 66 70 74
100 360 87 112 151 179 140 339 125 119 130 97 101 48 93 123 112 126 141 139 130 141 148 142 118 110 103 98 95 93 89 86 85 84 83 89 95 92 89 88 85 82 79 75 73 71 67 72 79
30 21 13 98 234 278 140 173 137 114 57 69 117 74 67 302 154 130 138 136 135 135 143 146 121 109 101 99 100 94 92 89 88 89 87 94 95 94 100 99 89 86 80 80 75 71 67 77 83
307 67 66 219 255 228 120 164 141 118 115 105 116 126 75 31 134 132 134 138 136 142 139 132 123 112 106 103 101 99 97 92 94 93 93 98 87 91 104 98 99 90 82 79 77 73 78 79 87
13 100 74 229 253 165 142 157 125 101 111 169 79 97 110 139 134 139 135 135 137 147 138 130 124 114 110 108 104 105 102 106 102 102 97 102 88 89 92 99 94 89 96 86 84 81 76 86 94
128 100 214 227 270 181 166 127 118 142 133 149 144 89 156 160 147 144 144 142 141 152 140 135 133 119 114 109 108 105 106 104 101 102 108 115 104 102 104 92 91 90 94 96 95 87 85 95 99
109 103 271 242 186 330 194 87 96 93 134 112 139 150 182 180 147 145 143 145 147 150 153 142 130 127 121 122 122 109 114 115 111 109 106 112 115 116 119 113 113 110 106 105 95 92 102 103 103
72 68 227 275 297 138 286 95 55 51 90 64 2 154 153 158 147 137 139 141 142 152 156 148 134 118 99 112 103 101 111 118 115 107 110 114 116 117 118 117 114 114 119 107 95 91 112 111 107
120 143 216 197 332 329 158 100 132 108 113 53 63 96 142 152 135 138 140 137 146 147 150 151 148 135 122 118 109 108 114 126 120 102 117 117 125 112 113 122 122 124 109 91 107 103 112 111 108
180 200 180 75 85 13 165 107 133 123 215 180 156 144 148 154 138 143 148 148 162 157 162 163 173 147 141 122 117 110 114 133 134 118 109 107 107 100 107 111 118 119 119 117 121 109 108 106 105
184 236 176 152 67 13 115 109 155 161 200 164 155 152 152 158 150 150 154 155 164 173 175 169 167 151 146 133 129 125 124 124 132 130 118 120 119 111 118 116 118 126 128 128 127 114 110 109 104
180 240 139 122 136 144 33 92 176 156 118 130 141 151 157 146 149 151 153 159 168 176 179 178 164 156 150 145 140 140 135 130 129 133 135 146 137 125 124 120 126 129 133 135 128 129 119 115 112
182 195 174 166 180 165 139 234 167 146 130 136 149 159 161 151 157 152 161 167 172 172 173 175 162 163 156 152 150 144 140 135 136 134 135 139 139 131 128 127 125 126 134 133 131 128 126 117 113
113 144 257 204 177 204 148 245 221 146 151 147 160 161 160 157 161 172 170 176 172 169 170 170 166 166 159 154 156 147 145 146 139 140 136 135 138 138 139 134 133 132 138 137 133 129 125 119 112
128 138 189 278 145 206 135 253 205 167 150 157 161 168 163 168 169 182 180 176 175 173 175 172 170 161 160 162 156 147 145 142 137 138 137 136 138 142 142 141 137 139 138 138 138 135 125 118 113
215 190 199 278 191 140 179 252 343 163 156 164 168 168 160 165 177 185 186 176 177 178 175 172 171 165 162 160 149 147 145 143 142 142 141 137 141 145 141 136 133 137 137 139 137 135 133 123 114
181 206 226 198 210 165 174 236 183 192 164 174 171 172 166 171 185 186 179 175 176 183 179 175 173 165 163 159 151 147 146 144 148 146 145 142 144 145 146 141 141 144 143 139 137 131 129 126 119
174 191 237 279 200 136 207 198 217 210 191 180 182 177 178 175 185 181 174 172 171 178 178 176 172 168 170 165 158 154 151 151 153 150 149 148 148 149 150 148 147 150 148 144 141 135 131 126 122
242 258 248 6 218 147 188 243 226 188 210 191 184 183 180 167 179 187 182 169 170 169 179 180 178 177 179 172 165 163 157 157 155 153 152 154 151 151 153 153 153 153 150 150 151 146 137 135 127
211 204 215 211 187 282 281 292 201 215 201 174 189 191 182 174 180 190 188 171 168 171 178 182 182 182 179 171 163 156 159 154 155 161 158 161 158 155 157 156 157 159 160 158 158 156 150 150 148
203 193 175 147 124 227 151 269 264 202 200 194 184 173 185 184 183 187 185 175 169 170 178 184 184 184 178 174 174 169 166 165 172 171 165 165 168 161 164 163 164 166 167 164 164 165 160 164 159
219 163 174 157 136 81 230 67 268 140 209 212 204 189 176 183 179 186 186 177 169 169 171 182 184 183 181 179 183 178 177 177 169 170 169 170 172 174 170 173 172 172 172 171 170 171 171 169 179
145 74 43 55 83 324 212 166 240 193 204 211 200 190 173 155 182 184 178 167 164 168 169 177 182 183 186 186 183 177 170 169 166 170 173 174 174 177 181 180 181 181 180 182 182 185 186 179 169
93 101 32 359 347 228 256 176 244 254 227 221 194 180 167 161 158 170 172 169 165 167 167 173 180 181 187 186 179 177 177 176 176 175 177 175 178 182 183 187 187 187 189 190 195 199 201 200 198
187 157 157 196 198 231 348 220 248 300 2 6 131 136 147 168 178 182 179 170 168 168 166 170 175 178 187 186 180 179 178 180 181 180 180 184 187 189 188 189 193 195 195 198 202 208 212 217 223
191 203 169 104 12 60 214 274 274 182 109 91 124 135 159 171 176 161 157 159 161 165 166 168 172 180 187 187 181 177 180 178 175 176 182 183 185 187 189 193 196 196 200 206 211 216 221 226 232
158 190 101 351 166 240 262 243 225 226 209 186 170 158 154 146 140 125 121 139 151 155 157 164 173 181 187 190 185 178 178 179 175 175 179 183 184 187 187 190 196 199 203 207 213 219 222 228 233
159 242 235 145 160 185 227 256 225 218 198 184 172 162 150 141 131 119 109 127 139 147 164 169 174 180 186 187 185 180 177 177 178 180 184 185 187 192 195 199 199 203 208 213 220 223 226 232 236
283 207 172 164 242 215 155 259 6 287 190 161 156 149 132 122 113 106 107 108 112 138 163 171 173 177 180 181 177 177 176 178 177 178 182 186 191 195 200 200 203 208 213 219 227 231 233 238 242